| time (UTC) | temp C | wind direction | speed KPH | gust KPH | rain 1hr cm | rain 24hr cm | rain mn cm | humidity % | barometer mb |
| 20260903144558 | 13 | 263 | 14.5 | 27.4 | 0.00 | 0.00 | 0.00 | 89 | 1009.0 |
| 20260903144039 | 13 | 296 | 12.9 | 22.5 | 0.00 | 0.00 | 0.00 | 89 | 1009.3 |
| 20260903143539 | 13 | 327 | 14.5 | 22.5 | 0.00 | 0.00 | 0.00 | 89 | 1009.4 |
| 20260903143056 | 13 | 28 | 9.7 | 19.3 | 0.00 | 0.00 | 0.00 | 89 | 1009.4 |
| 20260903142535 | 13 | 297 | 11.3 | 19.3 | 0.00 | 0.00 | 0.00 | 89 | 1009.5 |
| 20260903142036 | 13 | 268 | 8.0 | 14.5 | 0.00 | 0.00 | 0.00 | 90 | 1009.5 |
| 20260903141554 | 13 | 256 | 3.2 | 11.3 | 0.00 | 0.00 | 0.00 | 90 | 1009.6 |
| 20260903141037 | 13 | 287 | 0.0 | 9.7 | 0.00 | 0.00 | 0.00 | 90 | 1009.7 |
| 20260903140541 | 13 | 272 | 4.8 | 11.3 | 0.00 | 0.00 | 0.00 | 90 | 1009.8 |
| 20260903140051 | 13 | 266 | 4.8 | 22.5 | 0.00 | 0.00 | 0.00 | 90 | 1009.8 |
| 20260903135535 | 13 | 289 | 6.4 | 22.5 | 0.00 | 0.00 | 0.00 | 90 | 1010.0 |
| 20260903135036 | 13 | 68 | 6.4 | 14.5 | 0.00 | 0.00 | 0.00 | 90 | 1010.0 |
| 20260903134546 | 13 | 263 | 4.8 | 11.3 | 0.00 | 0.00 | 0.00 | 90 | 1010.1 |
| 20260903134036 | 13 | 272 | 4.8 | 14.5 | 0.00 | 0.00 | 0.00 | 90 | 1010.2 |
| 20260903133535 | 13 | 282 | 4.8 | 14.5 | 0.00 | 0.00 | 0.00 | 90 | 1010.2 |
| 20260903133057 | 13 | 276 | 6.4 | 16.1 | 0.00 | 0.00 | 0.00 | 90 | 1010.2 |
| 20260903132537 | 13 | 270 | 6.4 | 19.3 | 0.00 | 0.00 | 0.00 | 90 | 1010.3 |
| 20260903132035 | 13 | 273 | 9.7 | 22.5 | 0.00 | 0.00 | 0.00 | 90 | 1010.4 |
| 20260903131554 | 13 | 289 | 14.5 | 22.5 | 0.00 | 0.00 | 0.00 | 91 | 1010.4 |
| 20260903131039 | 13 | 329 | 11.3 | 22.5 | 0.00 | 0.00 | 0.00 | 91 | 1010.4 |
| 20260903130541 | 13 | 256 | 8.0 | 17.7 | 0.00 | 0.00 | 0.00 | 91 | 1010.3 |
| 20260903130131 | 13 | 271 | 11.3 | 19.3 | 0.00 | 0.00 | 0.00 | 91 | 1010.3 |
| 20260903125539 | 14 | 263 | 9.7 | 24.1 | 0.00 | 0.00 | 0.00 | 91 | 1010.3 |
| 20260903125039 | 14 | 319 | 12.9 | 24.1 | 0.00 | 0.00 | 0.00 | 91 | 1010.4 |
| 20260903124555 | 14 | 292 | 12.9 | 22.5 | 0.00 | 0.00 | 0.00 | 91 | 1010.5 |
| 20260903124038 | 14 | 290 | 9.7 | 19.3 | 0.00 | 0.00 | 0.00 | 91 | 1010.6 |
| 20260903123538 | 14 | 287 | 11.3 | 20.9 | 0.00 | 0.00 | 0.00 | 91 | 1010.8 |
| 20260903123102 | 14 | 265 | 11.3 | 27.4 | 0.00 | 0.00 | 0.00 | 91 | 1010.8 |
| 20260903122540 | 14 | 267 | 14.5 | 27.4 | 0.00 | 0.00 | 0.00 | 91 | 1010.9 |
| 20260903122041 | 14 | 294 | 11.3 | 20.9 | 0.00 | 0.00 | 0.00 | 91 | 1010.8 |
| 20260903121550 | 13 | 265 | 9.7 | 22.5 | 0.00 | 0.00 | 0.00 | 91 | 1010.8 |
| 20260903121040 | 13 | 301 | 9.7 | 22.5 | 0.00 | 0.00 | 0.00 | 92 | 1010.9 |
| 20260903120540 | 13 | 288 | 12.9 | 20.9 | 0.00 | 0.00 | 0.00 | 92 | 1011.0 |
| 20260903120104 | 13 | 278 | 9.7 | 19.3 | 0.00 | 0.00 | 0.00 | 92 | 1011.0 |
| 20260903115540 | 13 | 263 | 11.3 | 19.3 | 0.00 | 0.00 | 0.00 | 92 | 1011.0 |
| 20260903115038 | 13 | 298 | 11.3 | 24.1 | 0.00 | 0.00 | 0.00 | 92 | 1011.1 |
| 20260903114600 | 13 | 277 | 12.9 | 29.0 | 0.00 | 0.00 | 0.00 | 92 | 1011.1 |
| 20260903114044 | 13 | 272 | 17.7 | 29.0 | 0.00 | 0.00 | 0.00 | 92 | 1011.3 |
| 20260903113542 | 13 | 298 | 16.1 | 27.4 | 0.00 | 0.00 | 0.00 | 92 | 1011.3 |
| 20260903113053 | 13 | 276 | 17.7 | 27.4 | 0.00 | 0.00 | 0.00 | 92 | 1011.4 |
| 20260903112540 | 13 | 302 | 14.5 | 25.7 | 0.00 | 0.00 | 0.00 | 92 | 1011.5 |
| 20260903112039 | 13 | 290 | 14.5 | 24.1 | 0.00 | 0.00 | 0.00 | 92 | 1011.4 |
| 20260903111558 | 13 | 308 | 8.0 | 12.9 | 0.00 | 0.00 | 0.00 | 92 | 1011.5 |
| 20260903111042 | 13 | 275 | 4.8 | 11.3 | 0.00 | 0.00 | 0.00 | 91 | 1011.6 |
| 20260903110539 | 13 | 250 | 3.2 | 11.3 | 0.00 | 0.00 | 0.00 | 91 | 1011.7 |
| 20260903110120 | 13 | 269 | 4.8 | 11.3 | 0.00 | 0.00 | 0.00 | 91 | 1011.8 |
| 20260903105539 | 13 | 294 | 1.6 | 11.3 | 0.00 | 0.00 | 0.00 | 91 | 1011.7 |
| 20260903105039 | 13 | 320 | 6.4 | 11.3 | 0.00 | 0.00 | 0.00 | 91 | 1012.0 |
| 20260903104556 | 13 | 277 | 3.2 | 9.7 | 0.00 | 0.00 | 0.00 | 91 | 1011.9 |
| 20260903104038 | 13 | 246 | 1.6 | 11.3 | 0.00 | 0.00 | 0.00 | 90 | 1012.0 |
| 20260903103542 | 13 | 277 | 1.6 | 11.3 | 0.00 | 0.00 | 0.00 | 90 | 1011.9 |
| 20260903103052 | 13 | 277 | 3.2 | 9.7 | 0.00 | 0.00 | 0.00 | 90 | 1012.0 |
| 20260903102539 | 13 | 273 | 1.6 | 9.7 | 0.00 | 0.00 | 0.00 | 90 | 1012.0 |
| 20260903102041 | 12 | 255 | 4.8 | 11.3 | 0.00 | 0.00 | 0.00 | 90 | 1012.1 |
| 20260903101608 | 12 | 273 | 3.2 | 11.3 | 0.00 | 0.00 | 0.00 | 90 | 1012.1 |
| 20260903101039 | 12 | 302 | 4.8 | 6.4 | 0.00 | 0.00 | 0.00 | 90 | 1012.1 |
| 20260903100539 | 12 | 336 | 3.2 | 6.4 | 0.00 | 0.00 | 0.00 | 90 | 1012.2 |
| 20260903100059 | 12 | 271 | 1.6 | 6.4 | 0.00 | 0.00 | 0.00 | 90 | 1012.2 |
| 20260903095538 | 12 | 255 | 1.6 | 6.4 | 0.00 | 0.00 | 0.00 | 90 | 1012.3 |
| 20260903095038 | 12 | 259 | 3.2 | 6.4 | 0.00 | 0.00 | 0.00 | 90 | 1012.4 |
| 20260903094600 | 12 | 329 | 3.2 | 6.4 | 0.00 | 0.00 | 0.00 | 90 | 1012.4 |
| 20260903094039 | 12 | 271 | 1.6 | 6.4 | 0.00 | 0.00 | 0.00 | 90 | 1012.5 |
| 20260903093539 | 12 | 269 | 4.8 | 6.4 | 0.00 | 0.00 | 0.00 | 90 | 1012.4 |
| 20260903093051 | 12 | 261 | 3.2 | 6.4 | 0.00 | 0.00 | 0.00 | 90 | 1012.4 |
| 20260903092539 | 12 | 265 | 1.6 | 4.8 | 0.00 | 0.00 | 0.00 | 90 | 1012.4 |
| 20260903092039 | 12 | 264 | 3.2 | 6.4 | 0.00 | 0.00 | 0.00 | 90 | 1012.4 |
| 20260903091600 | 12 | 261 | 1.6 | 6.4 | 0.00 | 0.00 | 0.00 | 90 | 1012.4 |
| 20260903091039 | 12 | 265 | 1.6 | 3.2 | 0.00 | 0.00 | 0.00 | 91 | 1012.4 |
| 20260903090539 | 12 | 266 | 1.6 | 3.2 | 0.00 | 0.00 | 0.00 | 91 | 1012.5 |
| 20260903090059 | 12 | 267 | 0.0 | 3.2 | 0.00 | 0.00 | 0.00 | 90 | 1012.5 |
| 20260903085538 | 12 | 267 | 0.0 | 4.8 | 0.00 | 0.00 | 0.00 | 90 | 1012.5 |
| 20260903085038 | 12 | 265 | 0.0 | 6.4 | 0.00 | 0.00 | 0.00 | 90 | 1012.6 |
| 20260903084555 | 12 | 265 | 3.2 | 6.4 | 0.00 | 0.00 | 0.00 | 90 | 1012.5 |
| 20260903084040 | 12 | 260 | 1.6 | 4.8 | 0.00 | 0.00 | 0.00 | 90 | 1012.5 |
| 20260903083539 | 12 | 270 | 1.6 | 4.8 | 0.00 | 0.00 | 0.00 | 90 | 1012.4 |
| 20260903083059 | 12 | 265 | 0.0 | 4.8 | 0.00 | 0.00 | 0.00 | 89 | 1012.6 |
| 20260903082538 | 13 | 0 | 0.0 | 4.8 | 0.00 | 0.00 | 0.00 | 89 | 1012.6 |
| 20260903082040 | 13 | 273 | 1.6 | 4.8 | 0.00 | 0.00 | 0.00 | 89 | 1012.5 |
| 20260903081550 | 13 | 270 | 0.0 | 11.3 | 0.00 | 0.00 | 0.00 | 89 | 1012.6 |
| 20260903081038 | 13 | 0 | 1.6 | 11.3 | 0.00 | 0.00 | 0.00 | 90 | 1012.8 |
| 20260903080539 | 13 | 281 | 6.4 | 14.5 | 0.00 | 0.00 | 0.00 | 90 | 1012.7 |
| 20260903080104 | 13 | 298 | 8.0 | 14.5 | 0.00 | 0.00 | 0.00 | 90 | 1012.7 |
| 20260903075538 | 13 | 259 | 4.8 | 11.3 | 0.00 | 0.00 | 0.00 | 90 | 1012.7 |
| 20260903075038 | 13 | 253 | 4.8 | 11.3 | 0.00 | 0.00 | 0.00 | 89 | 1012.6 |
| 20260903074608 | 13 | 230 | 1.6 | 12.9 | 0.00 | 0.00 | 0.00 | 89 | 1012.7 |
| 20260903074038 | 13 | 232 | 4.8 | 12.9 | 0.00 | 0.00 | 0.00 | 89 | 1012.7 |
| 20260903073538 | 13 | 250 | 4.8 | 14.5 | 0.00 | 0.00 | 0.00 | 89 | 1012.7 |
| 20260903073100 | 13 | 262 | 8.0 | 17.7 | 0.00 | 0.00 | 0.00 | 89 | 1012.8 |
| 20260903072540 | 13 | 268 | 8.0 | 17.7 | 0.00 | 0.00 | 0.00 | 89 | 1012.7 |
| 20260903072043 | 13 | 270 | 6.4 | 14.5 | 0.00 | 0.00 | 0.00 | 89 | 1012.7 |
| 20260903071553 | 13 | 286 | 4.8 | 12.9 | 0.00 | 0.00 | 0.00 | 89 | 1012.7 |
| 20260903071040 | 13 | 242 | 4.8 | 14.5 | 0.00 | 0.00 | 0.00 | 89 | 1012.8 |
| 20260903070538 | 13 | 261 | 8.0 | 14.5 | 0.00 | 0.00 | 0.00 | 89 | 1012.7 |
| 20260903065539 | 13 | 249 | 6.4 | 16.1 | 0.00 | 0.00 | 0.00 | 89 | 1012.8 |
| 20260903065035 | 13 | 254 | 6.4 | 16.1 | 0.00 | 0.00 | 0.00 | 89 | 1012.7 |
| 20260903064602 | 13 | 240 | 6.4 | 14.5 | 0.00 | 0.00 | 0.00 | 88 | 1012.7 |
| 20260903064038 | 13 | 262 | 6.4 | 17.7 | 0.00 | 0.00 | 0.00 | 88 | 1012.7 |
| 20260903063535 | 13 | 261 | 9.7 | 17.7 | 0.00 | 0.00 | 0.00 | 88 | 1012.8 |
| 20260903063054 | 13 | 239 | 8.0 | 16.1 | 0.00 | 0.00 | 0.00 | 88 | 1012.7 |
| 20260903062537 | 13 | 44 | 6.4 | 14.5 | 0.00 | 0.00 | 0.00 | 88 | 1012.7 |
| 20260903062037 | 13 | 312 | 8.0 | 14.5 | 0.00 | 0.00 | 0.00 | 88 | 1012.6 |
| 20260903061601 | 13 | 239 | 6.4 | 22.5 | 0.00 | 0.00 | 0.00 | 88 | 1012.5 |
| 20260903061038 | 13 | 274 | 8.0 | 22.5 | 0.00 | 0.00 | 0.00 | 88 | 1012.5 |
| 20260903060538 | 14 | 238 | 6.4 | 16.1 | 0.00 | 0.00 | 0.00 | 88 | 1012.6 |
| 20260903060058 | 14 | 267 | 6.4 | 17.7 | 0.00 | 0.00 | 0.00 | 88 | 1012.7 |
| 20260903055539 | 14 | 250 | 8.0 | 17.7 | 0.00 | 0.00 | 0.00 | 87 | 1012.7 |
| 20260903055038 | 14 | 244 | 8.0 | 17.7 | 0.00 | 0.00 | 0.00 | 87 | 1012.8 |
| 20260903054557 | 14 | 251 | 8.0 | 16.1 | 0.00 | 0.00 | 0.00 | 86 | 1012.7 |
| 20260903054035 | 14 | 255 | 6.4 | 20.9 | 0.00 | 0.00 | 0.00 | 86 | 1012.7 |
| 20260903053539 | 14 | 256 | 9.7 | 20.9 | 0.00 | 0.00 | 0.00 | 85 | 1012.7 |
| 20260903053107 | 14 | 261 | 8.0 | 19.3 | 0.00 | 0.00 | 0.00 | 85 | 1012.7 |
| 20260903052539 | 14 | 237 | 11.3 | 20.9 | 0.00 | 0.00 | 0.00 | 84 | 1012.7 |
| 20260903052042 | 14 | 254 | 9.7 | 20.9 | 0.00 | 0.00 | 0.00 | 84 | 1012.7 |
| 20260903051554 | 14 | 265 | 12.9 | 20.9 | 0.00 | 0.00 | 0.00 | 84 | 1012.7 |
| 20260903051038 | 14 | 259 | 12.9 | 20.9 | 0.00 | 0.00 | 0.00 | 83 | 1012.8 |
| 20260903050541 | 14 | 247 | 12.9 | 19.3 | 0.00 | 0.00 | 0.00 | 83 | 1012.7 |
| 20260903045539 | 15 | 257 | 11.3 | 24.1 | 0.00 | 0.00 | 0.00 | 83 | 1013.0 |
| 20260903045041 | 15 | 245 | 12.9 | 24.1 | 0.00 | 0.00 | 0.00 | 82 | 1013.0 |
| 20260903044603 | 15 | 252 | 12.9 | 22.5 | 0.00 | 0.00 | 0.00 | 82 | 1013.0 |
| 20260903044038 | 15 | 247 | 12.9 | 22.5 | 0.00 | 0.00 | 0.00 | 83 | 1013.0 |
| 20260903043539 | 14 | 253 | 14.5 | 22.5 | 0.00 | 0.00 | 0.00 | 82 | 1013.1 |
| 20260903043049 | 14 | 253 | 14.5 | 22.5 | 0.00 | 0.00 | 0.00 | 82 | 1013.1 |
| 20260903042539 | 14 | 252 | 16.1 | 25.7 | 0.00 | 0.00 | 0.00 | 81 | 1013.1 |
| 20260903042039 | 15 | 284 | 19.3 | 29.0 | 0.00 | 0.00 | 0.00 | 81 | 1013.0 |
| 20260903041548 | 15 | 249 | 19.3 | 29.0 | 0.00 | 0.00 | 0.00 | 79 | 1013.0 |
| 20260903041039 | 15 | 240 | 17.7 | 27.4 | 0.00 | 0.00 | 0.00 | 78 | 1013.1 |
| 20260903040539 | 15 | 261 | 19.3 | 27.4 | 0.00 | 0.00 | 0.00 | 76 | 1013.1 |
| 20260903040100 | 15 | 267 | 19.3 | 27.4 | 0.00 | 0.00 | 0.00 | 75 | 1013.1 |
| 20260903035538 | 15 | 244 | 16.1 | 30.6 | 0.00 | 0.00 | 0.00 | 76 | 1013.2 |
| 20260903035039 | 15 | 267 | 17.7 | 30.6 | 0.00 | 0.00 | 0.00 | 77 | 1013.2 |
| 20260903034553 | 15 | 262 | 19.3 | 29.0 | 0.00 | 0.00 | 0.00 | 76 | 1013.1 |
| 20260903034038 | 15 | 250 | 19.3 | 29.0 | 0.00 | 0.00 | 0.00 | 76 | 1013.1 |
| 20260903033543 | 15 | 251 | 19.3 | 30.6 | 0.00 | 0.00 | 0.00 | 76 | 1013.2 |
| 20260903033107 | 15 | 263 | 17.7 | 30.6 | 0.00 | 0.00 | 0.00 | 77 | 1013.3 |
| 20260903032539 | 15 | 237 | 17.7 | 30.6 | 0.00 | 0.00 | 0.00 | 77 | 1013.4 |
| 20260903032038 | 15 | 259 | 20.9 | 30.6 | 0.00 | 0.00 | 0.00 | 78 | 1013.3 |
| 20260903031558 | 15 | 249 | 17.7 | 30.6 | 0.00 | 0.00 | 0.00 | 78 | 1013.4 |
| 20260903031039 | 15 | 260 | 22.5 | 30.6 | 0.00 | 0.00 | 0.00 | 78 | 1013.4 |
| 20260903030539 | 15 | 238 | 20.9 | 29.0 | 0.00 | 0.00 | 0.00 | 78 | 1013.4 |
| 20260903030057 | 15 | 227 | 19.3 | 29.0 | 0.00 | 0.00 | 0.00 | 78 | 1013.4 |
| 20260903025538 | 15 | 259 | 20.9 | 35.4 | 0.00 | 0.00 | 0.00 | 78 | 1013.3 |
| 20260903025038 | 15 | 246 | 19.3 | 35.4 | 0.00 | 0.00 | 0.00 | 79 | 1013.6 |
| 20260903024550 | 15 | 256 | 19.3 | 29.0 | 0.00 | 0.00 | 0.00 | 80 | 1013.6 |
| 20260903024038 | 15 | 242 | 17.7 | 27.4 | 0.00 | 0.00 | 0.00 | 80 | 1013.5 |
| 20260903023540 | 15 | 234 | 19.3 | 27.4 | 0.00 | 0.00 | 0.00 | 81 | 1013.7 |
| 20260903023057 | 16 | 259 | 17.7 | 27.4 | 0.00 | 0.00 | 0.00 | 81 | 1013.7 |
| 20260903022539 | 16 | 242 | 17.7 | 27.4 | 0.00 | 0.00 | 0.00 | 81 | 1013.7 |
| 20260903022039 | 16 | 252 | 17.7 | 29.0 | 0.00 | 0.00 | 0.00 | 81 | 1013.7 |
| 20260903021607 | 15 | 248 | 20.9 | 30.6 | 0.00 | 0.00 | 0.00 | 80 | 1013.8 |
| 20260903021038 | 15 | 262 | 19.3 | 32.2 | 0.00 | 0.00 | 0.00 | 80 | 1013.8 |
| 20260903020539 | 15 | 256 | 20.9 | 33.8 | 0.00 | 0.00 | 0.00 | 81 | 1013.9 |
| 20260903020058 | 15 | 253 | 22.5 | 33.8 | 0.00 | 0.00 | 0.00 | 79 | 1013.8 |
| 20260903015537 | 15 | 299 | 20.9 | 33.8 | 0.00 | 0.00 | 0.00 | 79 | 1013.9 |
| 20260903015038 | 15 | 240 | 20.9 | 41.8 | 0.00 | 0.00 | 0.00 | 80 | 1014.0 |
| 20260903014551 | 15 | 252 | 22.5 | 41.8 | 0.00 | 0.00 | 0.00 | 80 | 1014.0 |
| 20260903014039 | 15 | 241 | 20.9 | 35.4 | 0.00 | 0.00 | 0.00 | 80 | 1014.1 |
| 20260903013539 | 15 | 261 | 19.3 | 35.4 | 0.00 | 0.00 | 0.00 | 79 | 1014.0 |
| 20260903013105 | 16 | 234 | 17.7 | 32.2 | 0.00 | 0.00 | 0.00 | 78 | 1014.2 |
| 20260903012539 | 16 | 257 | 19.3 | 32.2 | 0.00 | 0.00 | 0.00 | 79 | 1014.3 |
| 20260903012039 | 16 | 221 | 17.7 | 30.6 | 0.00 | 0.00 | 0.00 | 77 | 1014.4 |
| 20260903011606 | 15 | 250 | 16.1 | 35.4 | 0.00 | 0.00 | 0.00 | 78 | 1014.4 |
| 20260903011039 | 15 | 238 | 22.5 | 35.4 | 0.00 | 0.00 | 0.00 | 77 | 1014.4 |
| 20260903010539 | 15 | 310 | 14.5 | 33.8 | 0.00 | 0.00 | 0.00 | 77 | 1014.5 |
| 20260903010110 | 15 | 241 | 17.7 | 30.6 | 0.00 | 0.00 | 0.00 | 77 | 1014.7 |
| 20260903005541 | 15 | 230 | 17.7 | 30.6 | 0.00 | 0.00 | 0.00 | 78 | 1014.9 |
| 20260903005039 | 15 | 246 | 17.7 | 32.2 | 0.00 | 0.00 | 0.00 | 77 | 1014.8 |
| 20260903004557 | 15 | 253 | 17.7 | 32.2 | 0.00 | 0.00 | 0.00 | 79 | 1015.0 |
| 20260903004039 | 15 | 258 | 17.7 | 35.4 | 0.00 | 0.00 | 0.00 | 79 | 1015.0 |
| 20260903003539 | 15 | 237 | 16.1 | 35.4 | 0.00 | 0.00 | 0.00 | 79 | 1015.1 |
| 20260903003114 | 15 | 259 | 16.1 | 32.2 | 0.00 | 0.00 | 0.00 | 79 | 1015.0 |
| 20260903002539 | 15 | 250 | 16.1 | 32.2 | 0.00 | 0.00 | 0.00 | 79 | 1015.1 |
| 20260903002039 | 15 | 260 | 19.3 | 32.2 | 0.00 | 0.00 | 0.00 | 80 | 1015.0 |
| 20260903001602 | 15 | 265 | 16.1 | 33.8 | 0.00 | 0.00 | 0.00 | 79 | 1015.2 |
| 20260903001038 | 15 | 282 | 14.5 | 37.0 | 0.00 | 0.00 | 0.00 | 81 | 1015.2 |
| 20260903000538 | 15 | 277 | 25.7 | 37.0 | 0.00 | 0.00 | 0.00 | 78 | 1015.2 |
| 20260903000104 | 15 | 286 | 16.1 | 33.8 | 0.00 | 0.00 | 0.00 | 79 | 1015.2 |
| 20260902235538 | 16 | 311 | 14.5 | 38.6 | 0.00 | 0.00 | 0.00 | 82 | 1015.2 |
| 20260902235040 | 15 | 234 | 17.7 | 38.6 | 0.00 | 0.00 | 0.00 | 80 | 1015.3 |
| 20260902234555 | 15 | 311 | 22.5 | 38.6 | 0.00 | 0.00 | 0.00 | 81 | 1015.3 |
| 20260902234038 | 15 | 300 | 19.3 | 35.4 | 0.00 | 0.00 | 0.00 | 81 | 1015.4 |
| 20260902233539 | 15 | 278 | 20.9 | 35.4 | 0.00 | 0.00 | 0.00 | 82 | 1015.3 |
| 20260902233059 | 15 | 259 | 17.7 | 29.0 | 0.00 | 0.00 | 0.00 | 81 | 1015.4 |
| 20260902232540 | 15 | 239 | 16.1 | 33.8 | 0.00 | 0.00 | 0.00 | 82 | 1015.5 |
| 20260902232039 | 15 | 288 | 17.7 | 33.8 | 0.00 | 0.00 | 0.00 | 82 | 1015.3 |
| 20260902231559 | 15 | 241 | 16.1 | 30.6 | 0.00 | 0.00 | 0.00 | 82 | 1015.3 |
| 20260902231043 | 15 | 273 | 12.9 | 35.4 | 0.00 | 0.00 | 0.00 | 82 | 1015.3 |
| 20260902230544 | 15 | 284 | 20.9 | 35.4 | 0.00 | 0.00 | 0.00 | 82 | 1015.4 |
| 20260902230058 | 15 | 293 | 17.7 | 33.8 | 0.00 | 0.00 | 0.00 | 84 | 1015.7 |
| 20260902225540 | 15 | 266 | 20.9 | 33.8 | 0.00 | 0.00 | 0.00 | 81 | 1015.8 |
| 20260902225039 | 15 | 279 | 17.7 | 27.4 | 0.00 | 0.00 | 0.00 | 83 | 1015.7 |
| 20260902224557 | 15 | 290 | 19.3 | 38.6 | 0.00 | 0.00 | 0.00 | 83 | 1015.6 |
| 20260902224039 | 15 | 289 | 22.5 | 38.6 | 0.00 | 0.00 | 0.00 | 83 | 1015.7 |
| 20260902223541 | 15 | 313 | 19.3 | 33.8 | 0.00 | 0.00 | 0.00 | 82 | 1015.7 |
| 20260902223055 | 15 | 254 | 19.3 | 37.0 | 0.00 | 0.00 | 0.00 | 82 | 1015.7 |
| 20260902222541 | 15 | 270 | 24.1 | 37.0 | 0.00 | 0.00 | 0.00 | 82 | 1015.7 |
| 20260902222043 | 15 | 241 | 17.7 | 38.6 | 0.00 | 0.00 | 0.00 | 83 | 1015.7 |
| 20260902221617 | 14 | 279 | 20.9 | 40.2 | 0.00 | 0.00 | 0.00 | 84 | 1015.6 |
| 20260902221040 | 14 | 271 | 24.1 | 40.2 | 0.00 | 0.00 | 0.00 | 83 | 1015.6 |
| 20260902220540 | 14 | 246 | 20.9 | 32.2 | 0.00 | 0.00 | 0.00 | 83 | 1015.6 |
| 20260902220058 | 14 | 304 | 20.9 | 32.2 | 0.00 | 0.00 | 0.00 | 84 | 1015.8 |
| 20260902215537 | 14 | 276 | 20.9 | 33.8 | 0.00 | 0.00 | 0.00 | 84 | 1015.8 |
| 20260902215043 | 14 | 250 | 17.7 | 33.8 | 0.00 | 0.00 | 0.00 | 84 | 1015.6 |
| 20260902214557 | 13 | 290 | 17.7 | 33.8 | 0.00 | 0.00 | 0.00 | 85 | 1015.5 |
| 20260902214039 | 13 | 271 | 19.3 | 32.2 | 0.00 | 0.00 | 0.00 | 85 | 1015.6 |
| 20260902213535 | 13 | 286 | 19.3 | 32.2 | 0.00 | 0.00 | 0.00 | 85 | 1015.6 |
| 20260902213053 | 13 | 276 | 22.5 | 32.2 | 0.00 | 0.00 | 0.00 | 85 | 1015.7 |
| 20260902212537 | 13 | 269 | 16.1 | 30.6 | 0.00 | 0.00 | 0.00 | 85 | 1015.7 |
| 20260902212035 | 13 | 288 | 17.7 | 30.6 | 0.00 | 0.00 | 0.00 | 85 | 1015.8 |
| 20260902211612 | 13 | 287 | 14.5 | 24.1 | 0.00 | 0.00 | 0.00 | 85 | 1015.8 |
| 20260902211037 | 13 | 270 | 14.5 | 24.1 | 0.00 | 0.00 | 0.00 | 85 | 1015.8 |
| 20260902210537 | 13 | 279 | 12.9 | 24.1 | 0.00 | 0.00 | 0.00 | 85 | 1015.8 |
| 20260902210100 | 12 | 271 | 11.3 | 22.5 | 0.00 | 0.00 | 0.00 | 85 | 1015.8 |
| 20260902205539 | 12 | 274 | 11.3 | 22.5 | 0.00 | 0.00 | 0.00 | 86 | 1015.9 |
| 20260902205036 | 12 | 283 | 12.9 | 24.1 | 0.00 | 0.00 | 0.00 | 85 | 1015.7 |
| 20260902204555 | 12 | 260 | 12.9 | 24.1 | 0.00 | 0.00 | 0.00 | 85 | 1015.7 |
| 20260902204039 | 12 | 275 | 11.3 | 27.4 | 0.00 | 0.00 | 0.00 | 85 | 1015.8 |
| 20260902203536 | 12 | 273 | 11.3 | 27.4 | 0.00 | 0.00 | 0.00 | 85 | 1015.8 |
| 20260902203051 | 12 | 269 | 12.9 | 22.5 | 0.00 | 0.00 | 0.00 | 85 | 1015.7 |
| 20260902202536 | 12 | 291 | 12.9 | 22.5 | 0.00 | 0.00 | 0.00 | 86 | 1015.7 |
| 20260902202037 | 11 | 265 | 11.3 | 17.7 | 0.00 | 0.00 | 0.00 | 86 | 1015.7 |
| 20260902201609 | 11 | 290 | 11.3 | 17.7 | 0.00 | 0.00 | 0.00 | 86 | 1015.6 |
| 20260902201035 | 11 | 281 | 9.7 | 16.1 | 0.00 | 0.00 | 0.00 | 86 | 1015.7 |
| 20260902200536 | 11 | 257 | 9.7 | 16.1 | 0.00 | 0.00 | 0.00 | 86 | 1015.6 |
| 20260902200104 | 11 | 277 | 6.4 | 14.5 | 0.00 | 0.00 | 0.00 | 86 | 1015.8 |
| 20260902195539 | 11 | 265 | 6.4 | 17.7 | 0.00 | 0.00 | 0.00 | 86 | 1015.7 |
| 20260902195036 | 11 | 269 | 6.4 | 17.7 | 0.00 | 0.00 | 0.00 | 86 | 1015.6 |
| 20260902194556 | 11 | 260 | 8.0 | 17.7 | 0.00 | 0.00 | 0.00 | 87 | 1015.6 |
| 20260902194038 | 11 | 266 | 3.2 | 9.7 | 0.00 | 0.00 | 0.00 | 87 | 1015.5 |
| 20260902193539 | 11 | 249 | 3.2 | 9.7 | 0.00 | 0.00 | 0.00 | 87 | 1015.6 |
| 20260902193051 | 11 | 244 | 3.2 | 9.7 | 0.00 | 0.00 | 0.00 | 87 | 1015.5 |
| 20260902192538 | 11 | 257 | 1.6 | 14.5 | 0.00 | 0.00 | 0.00 | 87 | 1015.5 |
| 20260902192040 | 11 | 290 | 4.8 | 14.5 | 0.00 | 0.00 | 0.00 | 87 | 1015.4 |
| 20260902191549 | 11 | 273 | 3.2 | 16.1 | 0.00 | 0.00 | 0.00 | 87 | 1015.3 |
| 20260902191037 | 11 | 300 | 3.2 | 22.5 | 0.00 | 0.00 | 0.00 | 87 | 1015.2 |
| 20260902190535 | 11 | 258 | 6.4 | 22.5 | 0.00 | 0.00 | 0.00 | 87 | 1015.2 |
| 20260902190057 | 11 | 46 | 12.9 | 22.5 | 0.00 | 0.00 | 0.00 | 87 | 1015.0 |
| 20260902185536 | 11 | 327 | 14.5 | 27.4 | 0.00 | 0.00 | 0.00 | 87 | 1014.9 |
| 20260902185038 | 11 | 304 | 16.1 | 27.4 | 0.00 | 0.00 | 0.00 | 87 | 1014.7 |
| 20260902184557 | 11 | 273 | 14.5 | 24.1 | 0.00 | 0.00 | 0.00 | 87 | 1014.8 |
| 20260902184036 | 11 | 263 | 14.5 | 24.1 | 0.00 | 0.00 | 0.00 | 87 | 1014.9 |
| 20260902183536 | 11 | 290 | 12.9 | 22.5 | 0.00 | 0.00 | 0.00 | 87 | 1014.9 |
| 20260902183057 | 11 | 282 | 9.7 | 24.1 | 0.00 | 0.00 | 0.00 | 87 | 1014.8 |
| 20260902182535 | 11 | 262 | 12.9 | 24.1 | 0.00 | 0.00 | 0.00 | 88 | 1014.8 |
| 20260902182103 | 11 | 280 | 16.1 | 22.5 | 0.00 | 0.00 | 0.00 | 88 | 1014.8 |
| 20260902181614 | 11 | 277 | 12.9 | 19.3 | 0.00 | 0.00 | 0.00 | 89 | 1014.8 |
| 20260902181035 | 11 | 277 | 12.9 | 20.9 | 0.00 | 0.00 | 0.00 | 89 | 1014.7 |
| 20260902180536 | 12 | 269 | 14.5 | 22.5 | 0.00 | 0.00 | 0.00 | 89 | 1014.9 |
| 20260902175538 | 12 | 263 | 11.3 | 25.7 | 0.00 | 0.00 | 0.00 | 90 | 1015.0 |
| 20260902175044 | 12 | 279 | 16.1 | 25.7 | 0.00 | 0.00 | 0.00 | 90 | 1014.9 |
| 20260902174554 | 12 | 290 | 16.1 | 25.7 | 0.00 | 0.00 | 0.00 | 90 | 1015.0 |
| 20260902174036 | 12 | 273 | 14.5 | 25.7 | 0.00 | 0.00 | 0.00 | 90 | 1014.9 |
| 20260902173536 | 12 | 269 | 16.1 | 30.6 | 0.00 | 0.00 | 0.00 | 90 | 1015.0 |
| 20260902173101 | 12 | 264 | 16.1 | 30.6 | 0.00 | 0.00 | 0.00 | 90 | 1015.0 |
| 20260902172541 | 12 | 272 | 16.1 | 27.4 | 0.00 | 0.00 | 0.00 | 90 | 1015.0 |
| 20260902172035 | 12 | 261 | 16.1 | 27.4 | 0.00 | 0.00 | 0.00 | 90 | 1015.0 |
| 20260902171609 | 12 | 280 | 14.5 | 25.7 | 0.00 | 0.00 | 0.00 | 90 | 1014.9 |
| 20260902171036 | 12 | 265 | 14.5 | 25.7 | 0.00 | 0.00 | 0.00 | 90 | 1014.9 |
| 20260902170536 | 12 | 287 | 17.7 | 27.4 | 0.00 | 0.00 | 0.00 | 90 | 1015.1 |
| 20260902170051 | 12 | 271 | 16.1 | 27.4 | 0.00 | 0.00 | 0.00 | 90 | 1015.1 |
| 20260902165540 | 12 | 277 | 16.1 | 27.4 | 0.00 | 0.00 | 0.00 | 90 | 1015.0 |
| 20260902165036 | 12 | 265 | 16.1 | 24.1 | 0.00 | 0.00 | 0.00 | 90 | 1014.7 |
| 20260902164557 | 12 | 277 | 14.5 | 25.7 | 0.00 | 0.00 | 0.00 | 89 | 1014.9 |
| 20260902164040 | 12 | 273 | 16.1 | 25.7 | 0.00 | 0.00 | 0.00 | 89 | 1014.7 |
| 20260902163538 | 12 | 299 | 16.1 | 25.7 | 0.00 | 0.00 | 0.00 | 89 | 1014.7 |
| 20260902163057 | 12 | 288 | 14.5 | 24.1 | 0.00 | 0.00 | 0.00 | 89 | 1014.9 |
| 20260902162537 | 12 | 277 | 11.3 | 27.4 | 0.00 | 0.00 | 0.00 | 89 | 1015.0 |
| 20260902162036 | 12 | 300 | 11.3 | 27.4 | 0.00 | 0.00 | 0.00 | 89 | 1015.0 |
| 20260902161600 | 12 | 271 | 16.1 | 27.4 | 0.00 | 0.00 | 0.00 | 89 | 1014.7 |
| 20260902161042 | 12 | 273 | 12.9 | 25.7 | 0.00 | 0.00 | 0.00 | 89 | 1014.6 |
| 20260902160543 | 12 | 300 | 16.1 | 32.2 | 0.00 | 0.00 | 0.00 | 90 | 1014.5 |
| 20260902160049 | 12 | 299 | 19.3 | 32.2 | 0.00 | 0.00 | 0.00 | 90 | 1014.4 |
| 20260902155539 | 12 | 288 | 19.3 | 30.6 | 0.00 | 0.00 | 0.00 | 89 | 1014.3 |
| 20260902155036 | 12 | 271 | 19.3 | 30.6 | 0.00 | 0.00 | 0.00 | 89 | 1014.3 |
| 20260902154611 | 12 | 266 | 17.7 | 27.4 | 0.00 | 0.00 | 0.00 | 89 | 1014.2 |
| 20260902154035 | 12 | 263 | 14.5 | 30.6 | 0.00 | 0.00 | 0.00 | 89 | 1014.2 |
| 20260902153539 | 12 | 292 | 17.7 | 30.6 | 0.00 | 0.00 | 0.00 | 89 | 1014.3 |
| 20260902153059 | 12 | 250 | 17.7 | 25.7 | 0.00 | 0.00 | 0.00 | 89 | 1014.3 |
| 20260902152539 | 12 | 265 | 16.1 | 24.1 | 0.00 | 0.00 | 0.00 | 89 | 1014.2 |
| 20260902152039 | 12 | 265 | 12.9 | 25.7 | 0.00 | 0.00 | 0.00 | 89 | 1014.3 |
| 20260902151555 | 12 | 263 | 12.9 | 25.7 | 0.00 | 0.00 | 0.00 | 89 | 1014.3 |
| 20260902151036 | 12 | 286 | 14.5 | 25.7 | 0.00 | 0.00 | 0.00 | 89 | 1014.4 |
| 20260902150539 | 12 | 236 | 12.9 | 24.1 | 0.00 | 0.00 | 0.00 | 89 | 1014.3 |
| 20260902150051 | 12 | 248 | 12.9 | 25.7 | 0.00 | 0.00 | 0.00 | 89 | 1014.3 |
| 20260902145539 | 12 | 259 | 11.3 | 32.2 | 0.00 | 0.00 | 0.00 | 89 | 1014.3 |
| 20260902145035 | 12 | 255 | 17.7 | 32.2 | 0.00 | 0.00 | 0.00 | 89 | 1014.3 |